Location: Mahannah Oil Field
(37.4664°N, 96.6003°W)
Time: 10:17:27
(UTC+00:00)

Vanguard 2 - Pass Details

Date: 02 February 2021
Orbit: 552 x 2938 km, 32.9° (Epoch: 08 March)

Event Time Altitude Azimuth Distance (km) Brightness Sun altitude
Rises 01:04:58 0° 262° (W) 2,711 12.3 -15.0°
Reaches altitude 10° 01:07:55 10° 236° (WSW) 1,867 10.6 -15.5°
Maximum altitude 01:10:15 15° 201° (SSW) 1,680 9.7 -16.0°
Drops below altitude 10° 01:12:50 10° 167° (SSE) 2,128 9.8 -16.5°
Enters shadow 01:16:36 - 144° (SE) 3,363 10.6 -17.2°
